Weather History for KFTY - March, 2014

Change the Weather History Date:

Tuesday, March 25, 2014

  Actual Average Record
Temperature  
Mean Temperature 44 °F 56 °F  
Max Temperature 53 °F 68 °F 88 °F (2007)
Min Temperature 35 °F 44 °F 27 °F (2008)
Degree Days  
Heating Degree Days 21 9  
Month to date heating degree days 341 308  
Since 1 July heating degree days 2908 2648  
Cooling Degree Days 0 0  
Month to date cooling degree days 0 0  
Year to date cooling degree days 0 0  
Moisture  
Dew Point 25 °F    
Average Humidity 49    
Maximum Humidity 66    
Minimum Humidity 32    
Precipitation  
Precipitation T in 0.15 in 1.25 in (1975)
Month to date precipitation 2.49 3.99  
Year to date precipitation 8.16 13.16  
Sea Level Pressure  
Sea Level Pressure 30.01 in    
Wind  
Wind Speed 12 mph (NW)    
Max Wind Speed 28 mph    
Max Gust Speed 38 mph    
Visibility 10 miles    
Events      
T = Trace of Precipitation, MM = Missing Value Source: NWS Daily Summary

Daily Weather History Graph

Daily Weather History Graph

Search for Another Location

Airport or City:

Trip Planner

Search our weather history database for the weather conditions in past years. The results will help you decide how hot, cold, wet, or windy it might be!

Date:

Astronomy

Mar. 25, 2014 Rise Set
Actual Time 7:34 AM EDT 7:53 PM EDT
Civil Twilight 7:10 AM EDT 8:18 PM EDT
Nautical Twilight 6:40 AM EDT 8:47 PM EDT
Astronomical Twilight 6:11 AM EDT 9:17 PM EDT
Moon 3:41 AM EDT (3/25) 2:36 PM EDT (3/25)
Length of Visible Light 13h 08m
Length of Day
12h 18m
Waning Crescent, 32% of the Moon is Illuminated
Mar 25
Waning Crescent
Mar 30
New
Apr 7
First Quarter
Apr 15
Full
Apr 22
Last Quarter

Hourly Weather History & Observations

Time (EDT) Temp. Windchill Dew Point Humidity Pressure Visibility Wind Dir Wind Speed Gust Speed Precip Events Conditions
12:53 AM 53.1 °F - 34.0 °F 48% 29.96 in 10.0 mi SE 5.8 mph - N/A   Overcast
1:53 AM 52.0 °F - 33.1 °F 49% 29.94 in 10.0 mi SE 5.8 mph - N/A   Overcast
2:53 AM 51.1 °F - 35.1 °F 54% 29.93 in 10.0 mi Calm Calm - N/A   Overcast
3:53 AM 50.0 °F - 37.0 °F 61% 29.91 in 10.0 mi Calm Calm - 0.00 in   Overcast
4:53 AM 50.0 °F - 36.0 °F 59% 29.88 in 10.0 mi SSE 3.5 mph - 0.00 in   Overcast
5:53 AM 48.0 °F - 37.0 °F 66% 29.88 in 10.0 mi Calm Calm - N/A   Scattered Clouds
6:53 AM 45.0 °F 41.8 °F 32.0 °F 60% 29.90 in 10.0 mi Variable 5.8 mph - N/A   Clear
7:53 AM 43.0 °F 40.3 °F 28.0 °F 56% 29.92 in 10.0 mi NNW 4.6 mph - N/A   Clear
8:53 AM 45.0 °F 40.6 °F 24.1 °F 44% 29.95 in 10.0 mi NNW 8.1 mph - N/A   Clear
9:53 AM 46.9 °F - 21.9 °F 37% 29.96 in 10.0 mi NNW 11.5 mph 19.6 mph N/A   Clear
10:53 AM 50.0 °F - 21.0 °F 32% 29.97 in 10.0 mi NW 9.2 mph 27.6 mph N/A   Clear
11:53 AM 50.0 °F - 21.0 °F 32% 29.99 in 10.0 mi WNW 19.6 mph 38.0 mph N/A   Scattered Clouds
12:53 PM 50.0 °F - 21.9 °F 33% 29.99 in 10.0 mi WNW 21.9 mph 34.5 mph N/A   Mostly Cloudy
1:53 PM 48.9 °F - 23.0 °F 36% 30.00 in 10.0 mi WNW 19.6 mph 31.1 mph N/A   Mostly Cloudy
2:53 PM 48.0 °F - 23.0 °F 37% 30.01 in 10.0 mi NW 24.2 mph 32.2 mph N/A   Mostly Cloudy
3:53 PM 46.9 °F - 19.9 °F 34% 30.03 in 10.0 mi NW 24.2 mph 33.4 mph N/A   Overcast
4:53 PM 45.0 °F 37.1 °F 19.9 °F 37% 30.05 in 10.0 mi NW 19.6 mph 26.5 mph N/A   Overcast
5:53 PM 44.1 °F 35.9 °F 19.9 °F 38% 30.06 in 10.0 mi NNW 19.6 mph 27.6 mph N/A   Mostly Cloudy
6:53 PM 42.1 °F 33.6 °F 19.9 °F 41% 30.09 in 10.0 mi NW 18.4 mph 27.6 mph N/A   Overcast
7:53 PM 39.0 °F 31.4 °F 21.9 °F 50% 30.12 in 10.0 mi NW 12.7 mph 17.3 mph N/A   Clear
8:53 PM 37.9 °F 29.2 °F 19.0 °F 47% 30.14 in 10.0 mi NW 15.0 mph 21.9 mph N/A   Clear
9:53 PM 37.0 °F 31.0 °F 18.0 °F 46% 30.16 in 10.0 mi NW 8.1 mph - N/A   Clear
10:53 PM 37.0 °F 29.8 °F 19.0 °F 48% 30.18 in 10.0 mi NW 10.4 mph - N/A   Clear
11:53 PM 36.0 °F 28.5 °F 17.1 °F 46% 30.19 in 10.0 mi NW 10.4 mph - N/A   Clear